TimeMDT,TemperatureF,Dew PointF,Humidity,Sea Level PressureIn,VisibilityMPH,Wind Direction,Wind SpeedMPH,Gust SpeedMPH,PrecipitationIn,Events,Conditions,WindDirDegrees,DateUTC
12:53 AM,48.9,7.0,18,29.80,10.0,WNW,5.8,-,N/A,,Clear,300,2014-04-16 06:53:00
1:53 AM,45.0,6.1,20,29.80,10.0,West,8.1,-,N/A,,Clear,280,2014-04-16 07:53:00
2:53 AM,46.0,6.1,20,29.77,10.0,WNW,8.1,-,N/A,,Clear,290,2014-04-16 08:53:00
3:53 AM,46.9,7.0,20,29.75,10.0,West,10.4,-,N/A,,Clear,280,2014-04-16 09:53:00
4:53 AM,45.0,7.0,21,29.76,10.0,WNW,9.2,-,N/A,,Clear,300,2014-04-16 10:53:00
5:53 AM,44.1,7.0,22,29.74,10.0,West,9.2,-,N/A,,Clear,280,2014-04-16 11:53:00
6:53 AM,44.1,7.0,22,29.75,10.0,West,12.7,-,N/A,,Clear,270,2014-04-16 12:53:00
7:53 AM,52.0,8.1,17,29.76,10.0,NNW,5.8,-,N/A,,Clear,330,2014-04-16 13:53:00
8:53 AM,61.0,8.1,12,29.74,10.0,Variable,3.5,-,N/A,,Clear,0,2014-04-16 14:53:00
9:53 AM,63.0,10.0,13,29.74,10.0,Variable,6.9,-,N/A,,Clear,0,2014-04-16 15:53:00
10:53 AM,66.9,7.0,10,29.73,10.0,SE,8.1,-,N/A,,Clear,140,2014-04-16 16:53:00
11:53 AM,72.0,7.0,8,29.69,10.0,SSE,8.1,-,N/A,,Clear,160,2014-04-16 17:53:00
12:53 PM,73.9,3.0,6,29.67,10.0,North,-9999.0,-,N/A,,Clear,0,2014-04-16 18:53:00
1:53 PM,75.9,-2.0,5,29.64,10.0,South,10.4,-,N/A,,Clear,170,2014-04-16 19:53:00
2:53 PM,79.0,-2.0,4,29.59,10.0,East,3.5,-,N/A,,Clear,90,2014-04-16 20:53:00
3:53 PM,80.1,-4.0,4,29.54,10.0,SSE,6.9,23.0,N/A,,Clear,160,2014-04-16 21:53:00
4:53 PM,81.0,-8.0,4,29.52,10.0,South,13.8,24.2,N/A,,Clear,180,2014-04-16 22:53:00
5:53 PM,80.1,-5.1,4,29.52,10.0,WNW,17.3,25.3,N/A,,Clear,300,2014-04-16 23:53:00
6:53 PM,78.1,-0.9,5,29.54,10.0,West,15.0,27.6,N/A,,Clear,270,2014-04-17 00:53:00
7:53 PM,73.9,-0.0,5,29.57,10.0,WNW,17.3,-,N/A,,Clear,300,2014-04-17 01:53:00
8:53 PM,71.1,1.9,7,29.61,10.0,NW,15.0,21.9,N/A,,Clear,320,2014-04-17 02:53:00
9:53 PM,70.0,3.0,7,29.64,10.0,NNW,9.2,-,N/A,,Clear,330,2014-04-17 03:53:00
10:53 PM,66.0,3.0,8,29.67,10.0,NW,5.8,-,N/A,,Clear,310,2014-04-17 04:53:00
11:53 PM,64.9,3.0,9,29.68,10.0,NW,9.2,-,N/A,,Clear,310,2014-04-17 05:53:00